Weather History for Lancaster, PA

Change the Weather History Date:

Thursday, October 9, 2014

  Actual Average Record
Temperature  
Mean Temperature 58 °F -  
Max Temperature 70 °F 67 °F 90 °F (2007)
Min Temperature 46 °F 45 °F 27 °F (2001)
Degree Days  
Heating Degree Days 7    
Growing Degree Days 8 (Base 50)    
Moisture  
Dew Point 38 °F    
Average Humidity 51    
Maximum Humidity 73    
Minimum Humidity 31    
Precipitation  
Precipitation 0.00 in - - ()
Sea Level Pressure  
Sea Level Pressure 30.04 in    
Wind  
Wind Speed 7 mph (West)    
Max Wind Speed 20 mph    
Max Gust Speed 29 mph    
Visibility 10 miles    
Events      
Averages and records for this station are not official NWS values.
T = Trace of Precipitation, MM = Missing Value Source: NWS Daily Summary

Daily Weather History Graph

Daily Weather History Graph

Search for Another Location

Airport:

Trip Planner

Search our weather history database for the weather conditions in past years. The results will help you decide how hot, cold, wet, or windy it might be!

Date:

Astronomy

Oct. 09, 2014 Rise Set
Actual Time 7:09 AM EDT 6:34 PM EDT
Civil Twilight 6:42 AM EDT 7:01 PM EDT
Nautical Twilight 6:10 AM EDT 7:33 PM EDT
Astronomical Twilight 5:39 AM EDT 8:04 PM EDT
Moon 7:29 PM EDT (10/9) 8:21 AM EDT (10/9)
Length of Visible Light 12h 19m
Length of Day
11h 25m
Full, 98% of the Moon is Illuminated
Oct 9
Full
Oct 15
Last Quarter
Oct 23
New
Oct 30
First Quarter
Nov 6
Full

Hourly Weather History & Observations

Time (EDT) Temp. Windchill Dew Point Humidity Pressure Visibility Wind Dir Wind Speed Gust Speed Precip Events Conditions
12:53 AM 52.0 °F - 41.0 °F 66% 29.98 in 10.0 mi WNW 4.6 mph - N/A   Clear
1:53 AM 51.1 °F - 41.0 °F 68% 30.00 in 10.0 mi West 4.6 mph - N/A   Clear
2:53 AM 50.0 °F - 39.9 °F 68% 30.02 in 10.0 mi WSW 5.8 mph - N/A   Clear
3:53 AM 50.0 °F - 39.0 °F 66% 30.03 in 10.0 mi West 9.2 mph - N/A   Clear
4:53 AM 50.0 °F - 36.0 °F 59% 30.04 in 10.0 mi Calm Calm - N/A   Clear
5:53 AM 48.0 °F - 37.0 °F 66% 30.05 in 10.0 mi WSW 3.5 mph - N/A   Clear
6:53 AM 46.0 °F 44.8 °F 37.9 °F 73% 30.06 in 10.0 mi WNW 3.5 mph - N/A   Clear
7:53 AM 46.0 °F - 37.9 °F 73% 30.07 in 10.0 mi Calm Calm - N/A   Clear
8:53 AM 51.1 °F - 41.0 °F 68% 30.09 in 10.0 mi WSW 3.5 mph - N/A   Clear
9:53 AM 55.9 °F - 42.1 °F 60% 30.10 in 10.0 mi WNW 6.9 mph - N/A   Clear
10:53 AM 62.1 °F - 37.0 °F 39% 30.08 in 10.0 mi West 13.8 mph - N/A   Clear
11:53 AM 64.9 °F - 37.9 °F 37% 30.06 in 10.0 mi WSW 12.7 mph 20.7 mph N/A   Clear
12:53 PM 66.9 °F - 36.0 °F 32% 30.04 in 10.0 mi WSW 15.0 mph - N/A   Clear
1:53 PM 69.1 °F - 37.0 °F 31% 30.02 in 10.0 mi WSW 17.3 mph 26.5 mph N/A   Clear
2:53 PM 70.0 °F - 37.9 °F 31% 30.01 in 10.0 mi SW 17.3 mph 24.2 mph N/A   Clear
3:53 PM 69.1 °F - 37.9 °F 32% 30.01 in 10.0 mi West 19.6 mph 28.8 mph N/A   Partly Cloudy
4:53 PM 68.0 °F - 37.9 °F 33% 30.00 in 10.0 mi West 18.4 mph 26.5 mph N/A   Partly Cloudy
5:53 PM 66.0 °F - 36.0 °F 33% 30.01 in 10.0 mi West 12.7 mph - N/A   Clear
6:53 PM 64.0 °F - 35.1 °F 34% 30.00 in 10.0 mi WNW 11.5 mph - N/A   Clear
7:53 PM 61.0 °F - 37.0 °F 41% 30.03 in 10.0 mi WSW 5.8 mph - N/A   Clear
8:53 PM 60.1 °F - 37.9 °F 44% 30.04 in 10.0 mi NW 5.8 mph - N/A   Clear
9:53 PM 55.9 °F - 39.0 °F 53% 30.06 in 10.0 mi Calm Calm - N/A   Clear
10:53 PM 55.0 °F - 39.0 °F 55% 30.09 in 10.0 mi NNW 3.5 mph - N/A   Clear
11:53 PM 51.1 °F - 39.9 °F 66% 30.09 in 10.0 mi WNW 4.6 mph - N/A   Clear